GOES-S

Last updated on Wed Dec 19 2018 00:08:36 GMT+0000 (Coordinated Universal Time)

1 43226U 18022A 18352.14030120 .00000114 00000-0 00000+0 0 9995 2 43226 0.0566 106.1673 0002678 257.0147 356.8373 1.00270763 2989
UTC large
Height (km)
Speed (km/s)
/
Latitude / Longitude
Inclination (degrees)
Orbital Period (minutes)
Azimuth
Elevation
Range (km)
Doppler Factor

Next 0 passes for location: London (51.5072 / 0.1276)

Sorry there are no passes over London.